Weather History for KSNA - January, 2013

Change the Weather History Date:

Saturday, January 26, 2013

  Actual Average Record
Temperature  
Mean Temperature 61 °F 57 °F  
Max Temperature 66 °F 67 °F 83 °F (2003)
Min Temperature 55 °F 48 °F 43 °F (2002)
Degree Days  
Heating Degree Days 4 8  
Month to date heating degree days 258 219  
Since 1 July heating degree days 557 651  
Cooling Degree Days 0 0  
Month to date cooling degree days 0 0  
Year to date cooling degree days 0 0  
Growing Degree Days 10 (Base 50)    
Moisture  
Dew Point 57 °F    
Average Humidity 85    
Maximum Humidity 97    
Minimum Humidity 73    
Precipitation  
Precipitation 0.31 in 0.02 in 0.70 in (2001)
Month to date precipitation 1.31 2.63  
Year to date precipitation 1.31 2.63  
Since 1 July precipitation 4.33  
Snow  
Snow 0.00 in - - ()
Month to date snowfall 0.0  
Year to date snowfall 0.0  
Since 1 July snowfall 0.0  
Snow Depth 0.00 in    
Sea Level Pressure  
Sea Level Pressure 29.93 in    
Wind  
Wind Speed 4 mph (SSW)    
Max Wind Speed 14 mph    
Max Gust Speed 16 mph    
Visibility 4 miles    
Events Fog , Rain    
T = Trace of Precipitation, MM = Missing Value Source: NWS Daily Summary

Daily Weather History Graph

Daily Weather History Graph

Search for Another Location

Airport or City:

Trip Planner

Search our weather history database for the weather conditions in past years. The results will help you decide how hot, cold, wet, or windy it might be!

Date:

Astronomy

Jan. 26, 2013 Rise Set
Actual Time 6:51 AM PST 5:17 PM PST
Civil Twilight 6:25 AM PST 5:43 PM PST
Nautical Twilight 5:54 AM PST 6:13 PM PST
Astronomical Twilight 5:25 AM PST 6:43 PM PST
Moon 5:13 PM PST (1/26) 6:13 AM PST (1/26)
Length of Visible Light 11h 18m
Length of Day
10h 25m
Full, 100% of the Moon is Illuminated
Jan 26
Full
Jan 26
Full
Feb 3
Last Quarter
Feb 9
New
Feb 17
First Quarter

Hourly Weather History & Observations

Time (PST) Temp. Dew Point Humidity Pressure Visibility Wind Dir Wind Speed Gust Speed Precip Events Conditions
12:09 AM 60.8 °F 57.2 °F 88% 29.94 in 6.0 mi Calm Calm - N/A   Overcast
12:53 AM 60.1 °F 57.9 °F 93% 29.94 in 6.0 mi Calm Calm - N/A   Overcast
1:32 AM 60.8 °F 57.2 °F 88% 29.94 in 1.8 mi Calm Calm - 0.03 in Rain Rain
1:45 AM 60.8 °F 57.2 °F 88% 29.94 in 2.5 mi Calm Calm - 0.04 in Rain Light Rain
1:53 AM 60.1 °F 57.9 °F 93% 29.93 in 2.5 mi Calm Calm - 0.05 in Rain Light Rain
2:24 AM 60.8 °F 59.0 °F 94% 29.93 in 3.0 mi Calm Calm - 0.00 in   Overcast
2:40 AM 60.8 °F 57.2 °F 88% 29.92 in 2.5 mi Calm Calm - 0.00 in   Overcast
2:53 AM 60.1 °F 59.0 °F 96% 29.92 in 3.0 mi Calm Calm - 0.00 in   Overcast
3:04 AM 60.8 °F 59.0 °F 94% 29.92 in 4.0 mi Calm Calm - N/A   Overcast
3:53 AM 60.1 °F 59.0 °F 96% 29.90 in 3.0 mi Calm Calm - 0.00 in   Overcast
4:07 AM 60.8 °F 59.0 °F 94% 29.90 in 3.0 mi Calm Calm - N/A   Overcast
4:15 AM 60.8 °F 59.0 °F 94% 29.90 in 2.5 mi Calm Calm - N/A   Overcast
4:39 AM 60.8 °F 57.2 °F 88% 29.90 in 3.0 mi Calm Calm - N/A   Overcast
4:49 AM 60.8 °F 57.2 °F 88% 29.90 in 2.5 mi Calm Calm - N/A   Overcast
4:53 AM 60.1 °F 57.9 °F 93% 29.90 in 2.5 mi Calm Calm - N/A   Overcast
5:19 AM 60.8 °F 57.2 °F 88% 29.90 in 1.2 mi Calm Calm - 0.01 in Rain Light Rain
5:41 AM 60.8 °F 57.2 °F 88% 29.90 in 1.2 mi Calm Calm - 0.03 in Rain Light Rain
5:53 AM 60.1 °F 57.9 °F 93% 29.90 in 1.0 mi Calm Calm - 0.03 in Rain Light Rain
6:16 AM 60.8 °F 57.2 °F 88% 29.90 in 1.5 mi Calm Calm - 0.04 in Rain Rain
6:53 AM 60.1 °F 57.9 °F 93% 29.91 in 1.2 mi Calm Calm - 0.12 in Rain Light Rain
6:59 AM 60.8 °F 57.2 °F 88% 29.91 in 1.5 mi Calm Calm - 0.00 in Rain Light Rain
7:53 AM 60.1 °F 59.0 °F 96% 29.92 in 1.8 mi Calm Calm - 0.06 in Rain Light Rain
8:11 AM 60.8 °F 59.0 °F 94% 29.92 in 1.0 mi Calm Calm - 0.03 in Rain Rain
8:23 AM 60.8 °F 59.0 °F 94% 29.92 in 1.8 mi Calm Calm - 0.05 in Rain Light Rain
8:29 AM 60.8 °F 59.0 °F 94% 29.92 in 3.0 mi SW 3.5 mph - 0.05 in Rain Light Rain
8:35 AM 60.8 °F 57.2 °F 88% 29.93 in 2.5 mi SW 3.5 mph - 0.05 in Rain Light Rain
8:47 AM 60.8 °F 57.2 °F 88% 29.93 in 1.8 mi Calm Calm - 0.05 in   Overcast
8:53 AM 60.1 °F 59.0 °F 96% 29.93 in 1.8 mi Calm Calm - 0.05 in   Overcast
9:15 AM 60.8 °F 57.2 °F 88% 29.94 in 2.5 mi Calm Calm - N/A   Overcast
9:53 AM 61.0 °F 59.0 °F 93% 29.95 in 2.5 mi Calm Calm - N/A   Overcast
10:53 AM 62.1 °F 59.0 °F 90% 29.94 in 2.5 mi SSW 4.6 mph - N/A   Overcast
11:12 AM 62.6 °F 59.0 °F 88% 29.94 in 2.5 mi South 4.6 mph - N/A   Overcast
11:45 AM 64.4 °F 57.2 °F 77% 29.92 in 3.0 mi South 4.6 mph - N/A   Mostly Cloudy
11:53 AM 64.9 °F 59.0 °F 81% 29.92 in 3.0 mi SSE 5.8 mph - N/A   Mostly Cloudy
12:38 PM 64.4 °F 57.2 °F 77% 29.90 in 9.0 mi WSW 5.8 mph - N/A Fog Mostly Cloudy
12:53 PM 66.0 °F 57.9 °F 75% 29.90 in 10.0 mi SW 10.4 mph - N/A Fog Mostly Cloudy
1:17 PM 64.4 °F 59.0 °F 83% 29.90 in 7.0 mi SSW 11.5 mph - N/A Fog Mostly Cloudy
1:32 PM 62.6 °F 57.2 °F 82% 29.91 in 4.0 mi SW 11.5 mph - N/A Fog Patches of Fog
1:48 PM 62.6 °F 57.2 °F 82% 29.91 in 4.0 mi SW 10.4 mph - N/A   Overcast
1:53 PM 62.1 °F 57.0 °F 84% 29.91 in 4.0 mi WSW 9.2 mph - N/A   Overcast
2:53 PM 62.1 °F 55.0 °F 78% 29.91 in 7.0 mi SW 6.9 mph - N/A   Mostly Cloudy
3:53 PM 61.0 °F 54.0 °F 78% 29.92 in 10.0 mi SSW 5.8 mph - N/A   Mostly Cloudy
4:14 PM 60.8 °F 55.4 °F 82% 29.92 in 10.0 mi South 4.6 mph - N/A   Scattered Clouds
4:39 PM 60.8 °F 53.6 °F 77% 29.92 in 10.0 mi SSW 4.6 mph - N/A   Scattered Clouds
4:53 PM 61.0 °F 54.0 °F 78% 29.93 in 10.0 mi SSW 4.6 mph - N/A   Scattered Clouds
5:45 PM 60.8 °F 53.6 °F 77% 29.94 in 10.0 mi SSW 6.9 mph - N/A   Mostly Cloudy
5:53 PM 59.0 °F 54.0 °F 83% 29.94 in 10.0 mi SSW 5.8 mph - N/A   Mostly Cloudy
6:53 PM 59.0 °F 54.0 °F 83% 29.95 in 10.0 mi South 6.9 mph - N/A   Overcast
7:53 PM 59.0 °F 55.0 °F 87% 29.97 in 10.0 mi SW 6.9 mph - N/A   Overcast
8:00 PM 59.0 °F 55.4 °F 88% 29.97 in 10.0 mi SW 6.9 mph - N/A   Overcast
8:26 PM 57.2 °F 55.4 °F 94% 29.98 in 2.5 mi SW 6.9 mph - N/A   Overcast
8:49 PM 57.2 °F 55.4 °F 94% 29.98 in 1.0 mi SSW 5.8 mph - N/A   Overcast
8:53 PM 57.0 °F 55.0 °F 93% 29.99 in 1.0 mi SSW 4.6 mph - N/A   Overcast
8:59 PM 57.2 °F 55.4 °F 94% 29.98 in 0.5 mi South 5.8 mph - N/A   Overcast
9:47 PM 55.4 °F 55.4 °F 100% 29.99 in 2.5 mi South 5.8 mph - N/A   Overcast
9:53 PM 55.9 °F 54.0 °F 93% 29.99 in 2.5 mi South 6.9 mph - N/A   Overcast
10:26 PM 55.4 °F 53.6 °F 94% 30.00 in 3.0 mi South 8.1 mph - N/A   Overcast
10:53 PM 55.9 °F 54.0 °F 93% 30.00 in 4.0 mi South 8.1 mph - N/A   Overcast
11:19 PM 55.4 °F 53.6 °F 94% 30.01 in 2.5 mi SSW 6.9 mph - N/A   Overcast
11:53 PM 55.0 °F 53.1 °F 93% 30.01 in 2.0 mi South 9.2 mph - N/A   Overcast